Volver al catálogo

STARLINK-6301

ActivoComunicacionesVLEO
NORAD 56392·PAYLOAD·🇺🇸 United States

Lanzado May 4, 2023 desde Cape Canaveral Space Force Station

Loading…

Próximos Pases (próximas 24 horas)

TLE

ActualizadoSource: CelesTrak SupGP

Época: Sep 15, 2026, 02:06 UTC

1 56392C 23061U   26258.08798611 -.00025259  00000+0 -91510-3 0  2581
2 56392  42.9996 197.5997 0001098 268.7247 269.1452 15.27583533    19

Sigue STARLINK-6301 en tiempo real con AllMySat

Download on the App Store